GPS BIII-3

Last updated on Tue Sep 22 2026 00:03:02 GMT+0000 (Coordinated Universal Time)

1 45854U 20041A 26264.46020260 -.00000072 00000+0 00000+0 0 9991 2 45854 56.7286 25.2166 0068234 206.1255 151.6418 2.00573594 45963
UTC large
Height (km)
Speed (km/s)
/
Latitude / Longitude
Inclination (degrees)
Orbital Period (minutes)
Azimuth
Elevation
Range (km)
Doppler Factor

Next 0 passes for location: London (51.5072 / 0.1276)

No passes found over London.
GPS BIII-3